Weather History for Antigo, WI

Change the Weather History Date:

Tuesday, September 4, 2012

  Actual Average Record
Temperature  
Mean Temperature 70 °F -  
Max Temperature 81 °F 73 °F 88 °F (1960)
Min Temperature 59 °F 49 °F 32 °F (1974)
Cooling Degree Days 6    
Growing Degree Days 20 (Base 50)    
Moisture  
Dew Point 65 °F    
Average Humidity 87    
Maximum Humidity 100    
Minimum Humidity 60    
Precipitation  
Precipitation 0.00 in - - ()
Sea Level Pressure  
Sea Level Pressure 29.89 in    
Wind  
Wind Speed 3 mph (SSE)    
Max Wind Speed 15 mph    
Max Gust Speed -    
Visibility 7 miles    
Events Fog , Rain    
Averages and records for this station are not official NWS values.
T = Trace of Precipitation, MM = Missing Value Source: NWS Daily Summary

Daily Weather History Graph

Daily Weather History Graph

Search for Another Location

Airport:

Trip Planner

Search our weather history database for the weather conditions in past years. The results will help you decide how hot, cold, wet, or windy it might be!

Date:

Astronomy

Sep. 04, 2012 Rise Set
Actual Time 6:22 AM CDT 7:27 PM CDT
Civil Twilight 5:52 AM CDT 7:57 PM CDT
Nautical Twilight 5:16 AM CDT 8:33 PM CDT
Astronomical Twilight 4:37 AM CDT 9:11 PM CDT
Moon 9:04 PM CDT (9/4) 10:44 AM CDT (9/4)
Length of Visible Light 14h 05m
Length of Day
13h 04m
Waning Gibbous, 83% of the Moon is Illuminated
Sep 4
Waning Gibbous
Sep 8
Last Quarter
Sep 15
New
Sep 22
First Quarter
Sep 29
Full

Hourly Weather History & Observations

Time (CDT) Temp. Heat Index Dew Point Humidity Pressure Visibility Wind Dir Wind Speed Gust Speed Precip Events Conditions
12:15 AM 64.6 °F - 62.4 °F 93% 29.94 in 10.0 mi Calm Calm - N/A   Clear
12:35 AM 64.0 °F - 62.1 °F 93% 29.93 in 10.0 mi Calm Calm - N/A   Clear
12:55 AM 63.9 °F - 62.8 °F 96% 29.93 in 10.0 mi Calm Calm - N/A   Clear
1:15 AM 63.5 °F - 62.1 °F 95% 29.93 in 10.0 mi Calm Calm - N/A   Clear
1:35 AM 62.1 °F - 61.0 °F 96% 29.93 in 7.0 mi Calm Calm - N/A   Clear
1:55 AM 62.8 °F - 61.5 °F 96% 29.93 in 7.0 mi Calm Calm - N/A   Clear
2:15 AM 61.7 °F - 61.0 °F 97% 29.93 in 5.0 mi Calm Calm - N/A   Scattered Clouds
2:35 AM 61.2 °F - 60.3 °F 97% 29.93 in 1.8 mi Calm Calm - N/A   Mist
2:55 AM 60.6 °F - 60.1 °F 98% 29.93 in 7.0 mi SE 3.5 mph - N/A   Mostly Cloudy
3:15 AM 63.5 °F - 63.3 °F 99% 29.93 in 7.0 mi SE 3.5 mph - N/A   Overcast
3:35 AM 63.1 °F - 62.8 °F 99% 29.93 in 5.0 mi Calm Calm - N/A   Overcast
3:55 AM 63.3 °F - 62.8 °F 98% 29.93 in 2.5 mi Calm Calm - N/A   Overcast
4:15 AM 63.9 °F - 63.7 °F 99% 29.92 in 0.5 mi Calm Calm - N/A Fog Fog
4:55 AM 62.8 °F - 62.8 °F 100% 29.93 in 0.2 mi Calm Calm - N/A Fog Fog
5:15 AM 62.6 °F - 62.6 °F 100% 29.93 in 0.2 mi Calm Calm - N/A Fog Fog
5:35 AM 61.7 °F - 61.7 °F 100% 29.93 in 1.2 mi ESE 3.5 mph - N/A   Overcast
5:55 AM 63.0 °F - 63.0 °F 100% 29.93 in 2.5 mi Calm Calm - N/A   Overcast
6:15 AM 64.0 °F - 64.0 °F 100% 29.93 in 3.0 mi Calm Calm - N/A   Overcast
6:35 AM 64.4 °F - 64.4 °F 100% 29.93 in 0.2 mi ENE 3.5 mph - N/A Fog Fog
6:55 AM 64.8 °F - 64.8 °F 100% 29.93 in 0.2 mi ENE 4.6 mph - N/A Fog Fog
7:15 AM 65.3 °F - 65.3 °F 100% 29.93 in 0.2 mi Calm Calm - N/A Fog Fog
7:35 AM 65.7 °F - 65.7 °F 100% 29.93 in 0.2 mi ESE 3.5 mph - N/A Fog Fog
7:55 AM 65.8 °F - 65.8 °F 100% 29.93 in 0.2 mi East 3.5 mph - N/A Fog Fog
8:15 AM 65.8 °F - 65.8 °F 100% 29.93 in 0.2 mi ESE 3.5 mph - N/A Fog Fog
8:35 AM 66.4 °F - 66.4 °F 100% 29.93 in 0.2 mi SE 5.8 mph - N/A Fog Fog
8:55 AM 66.4 °F - 66.4 °F 100% 29.93 in 0.2 mi ESE 4.6 mph - N/A Fog Fog
9:15 AM 66.2 °F - 66.2 °F 100% 29.93 in 0.5 mi ESE 6.9 mph - N/A Fog Fog
9:35 AM 66.6 °F - 66.6 °F 100% 29.93 in 0.8 mi SE 6.9 mph - N/A   Overcast
9:55 AM 67.1 °F - 67.1 °F 100% 29.94 in 1.2 mi SE 4.6 mph - N/A   Overcast
10:15 AM 67.5 °F - 66.7 °F 98% 29.94 in 3.0 mi SSE 5.8 mph - N/A   Overcast
10:35 AM 68.2 °F - 66.9 °F 96% 29.94 in 5.0 mi SSE 5.8 mph - N/A   Overcast
10:55 AM 68.9 °F - 67.3 °F 95% 29.94 in 5.0 mi Calm Calm - N/A   Overcast
11:15 AM 69.8 °F - 67.3 °F 92% 29.94 in 7.0 mi SSE 3.5 mph - N/A   Overcast
11:35 AM 70.5 °F - 67.5 °F 90% 29.94 in 7.0 mi SW 3.5 mph - N/A   Overcast
11:55 AM 72.3 °F - 67.8 °F 86% 29.93 in 10.0 mi South 4.6 mph - N/A   Overcast
12:15 PM 72.9 °F - 68.2 °F 85% 29.93 in 10.0 mi SSE 4.6 mph - N/A   Overcast
12:35 PM 73.8 °F - 68.0 °F 82% 29.92 in 10.0 mi SE 3.5 mph - N/A   Overcast
12:55 PM 74.1 °F - 68.2 °F 82% 29.93 in 10.0 mi SSW 6.9 mph - N/A   Overcast
1:15 PM 75.0 °F - 68.4 °F 80% 29.92 in 10.0 mi WSW 6.9 mph - N/A   Overcast
1:35 PM 74.3 °F - 67.6 °F 80% 29.92 in 10.0 mi SSW 8.1 mph - N/A   Overcast
1:55 PM 75.4 °F - 68.0 °F 78% 29.91 in 10.0 mi SSE 6.9 mph - N/A   Overcast
2:15 PM 77.0 °F - 68.2 °F 74% 29.90 in 10.0 mi SSE 5.8 mph - N/A   Scattered Clouds
2:35 PM 78.3 °F - 67.6 °F 70% 29.89 in 10.0 mi South 4.6 mph - N/A   Scattered Clouds
2:55 PM 79.3 °F - 67.1 °F 66% 29.88 in 10.0 mi South 8.1 mph - N/A   Clear
3:15 PM 79.9 °F - 67.1 °F 65% 29.87 in 10.0 mi SSE 8.1 mph - N/A   Clear
3:35 PM 80.8 °F 83.2 °F 67.3 °F 63% 29.86 in 10.0 mi South 5.8 mph - N/A   Clear
3:55 PM 81.5 °F 83.9 °F 66.9 °F 61% 29.86 in 10.0 mi South 6.9 mph - N/A   Clear
4:15 PM 81.5 °F 83.9 °F 66.7 °F 61% 29.86 in 10.0 mi SSW 6.9 mph - N/A   Clear
4:35 PM 81.9 °F 84.2 °F 66.6 °F 60% 29.86 in 10.0 mi SSE 9.2 mph - N/A   Clear
5:15 PM 81.9 °F 84.4 °F 67.3 °F 61% 29.84 in 10.0 mi SE 8.1 mph - N/A   Clear
5:35 PM 79.3 °F - 66.6 °F 65% 29.84 in 10.0 mi SE 9.2 mph - N/A   Clear
5:55 PM 78.4 °F - 67.1 °F 68% 29.84 in 10.0 mi SE 6.9 mph - N/A   Clear
6:15 PM 77.5 °F - 67.3 °F 71% 29.84 in 10.0 mi SE 6.9 mph - N/A   Clear
6:35 PM 76.5 °F - 67.1 °F 73% 29.85 in 10.0 mi SE 6.9 mph - N/A   Clear
6:55 PM 75.6 °F - 67.8 °F 77% 29.84 in 10.0 mi SE 10.4 mph - N/A   Clear
7:15 PM 74.8 °F - 68.0 °F 79% 29.84 in 10.0 mi SSE 9.2 mph - N/A   Clear
7:35 PM 74.3 °F - 68.5 °F 82% 29.83 in 10.0 mi SE 11.5 mph - N/A   Scattered Clouds
7:55 PM 73.0 °F - 69.3 °F 88% 29.82 in 7.0 mi SE 15.0 mph - N/A Rain Light Rain
8:15 PM 72.5 °F - 69.3 °F 90% 29.81 in 7.0 mi SE 11.5 mph - N/A   Scattered Clouds
8:35 PM 72.1 °F - 69.3 °F 91% 29.83 in 5.0 mi South 11.5 mph - N/A   Scattered Clouds
8:55 PM 71.6 °F - 66.6 °F 84% 29.81 in 10.0 mi SE 8.1 mph - N/A   Scattered Clouds
9:15 PM 70.2 °F - 65.3 °F 85% 29.81 in 10.0 mi SE 10.4 mph - N/A   Clear
9:35 PM 67.8 °F - 58.5 °F 72% 29.82 in 10.0 mi South 5.8 mph - N/A   Clear
10:15 PM 64.8 °F - 59.2 °F 82% 29.83 in 10.0 mi Calm Calm - N/A   Clear
10:35 PM 64.4 °F - 59.0 °F 83% 29.83 in 10.0 mi Calm Calm - N/A   Clear
10:55 PM 63.5 °F - 60.4 °F 90% 29.82 in 10.0 mi Calm Calm - N/A   Clear
11:35 PM 61.3 °F - 58.8 °F 91% 29.82 in 10.0 mi Calm Calm - N/A   Clear
11:55 PM 59.9 °F - 57.9 °F 93% 29.82 in 10.0 mi Calm Calm - N/A   Clear